www.pogodaiklimat.ru
Время
и дата
23:53 24.11
00:53 25.11
01:53 25.11
02:53 25.11
03:53 25.11
04:53 25.11
05:53 25.11
06:53 25.11
07:53 25.11
08:53 25.11
09:53 25.11
10:53 25.11
11:53 25.11
12:53 25.11
13:53 25.11
14:53 25.11
15:53 25.11
16:53 25.11
17:48 25.11
17:53 25.11
18:53 25.11
19:53 25.11
20:53 25.11
21:53 25.11
22:53 25.11
23:02 25.11
23:53 25.11
00:53 26.11
01:53 26.11
02:53 26.11
03:53 26.11
04:13 26.11
04:53 26.11
05:38 26.11
05:53 26.11
06:53 26.11
07:53 26.11
08:53 26.11
09:53 26.11
10:53 26.11
11:53 26.11
12:53 26.11
13:53 26.11
14:53 26.11
15:53 26.11
16:53 26.11
17:53 26.11
18:53 26.11
Ветер
(напр.,м/с)
Видим. Явления Облачность Т
(С)
Тd
(С)
f
(%)
Тe
(С)
Тes
(С)
Комфортность P
(гПа)
Po
(гПа)
Тmin
(С)
Tmax
(С)
R
(мм)
R24
(мм)
S
(см)
штиль 0 16 км 2/0 7500 м
[Ci]
+8.3 -2.2 48 +8 +8 1025.3 1002.7
ЮВ 1 16 км 2/0 7500 м
[Ci]
+8.9 -3.9 40 +8 +8 1025.0 1002.3
штиль 0 16 км 2/0 7500 м
[Ci]
+9.4 -3.9 39 +9 +9 1024.9 1002.3
ЮВ 1 16 км 2/0 7500 м
[Ci]
+8.9 -4.4 39 +8 +8 1024.6 1002.0
ЮВ 1 16 км 2/0 7500 м
[Ci]
+8.3 -4.4 40 +6 +6 1024.6 1002.0
ЮВ 1 16 км 2/0 7500 м
[Ci]
+8.3 -3.3 44 +6 +6 1024.0 1001.3
ЮВ 1 16 км 5/0 7500 м
[Ci]
+8.3 -1.1 52 +7 +7 1023.0 1000.3 +8.3 +9.4
штиль 0 16 км 5/0 7500 м
[Ci]
+8.3 +0.6 58 +8 +8 1023.4 1000.7
ЮВ 1 16 км 5/0 3600 м
[Ac Ci]
+11.1 +2.2 54 +10 +10 1024.0 1001.3
Ю 1 16 км 5/0 3600 м
[Ac Ci]
+13.3 +3.9 53 +12 +13 1023.9 1001.3
Ю 2 16 км 8/2 1800 м
[Ac Ci]
+15.6 +6.1 53 +15 +16 1023.6 1001.0
Ю 3 16 км 8/2 1500 м
[Ac Ci]
+18.3 +7.2 48 +18 +19 1022.8 1000.3
ЮЗ 3 16 км 8/2 1380 м
[Ac Ci]
+19.4 +8.3 49 +20 +21 1021.8 999.3 +8.3 +19.4
ЮЗ 2 16 км 8/2 1380 м
[Ac Ci]
+19.4 +8.9 51 +20 +22 1020.7 998.4
ЮЗ 1 16 км 8/8 1260 м
[Ac Ci]
+20.0 +10.0 53 +22 +23 комфорт 1019.3 997.0
ЮЗ 2 16 км 10/10 1500 м +18.9 +10.6 59 +19 +19 1019.3 997.0
ЮЗ 2 16 км 10/10 1500 м +18.3 +11.1 63 +18 +18 1019.0 996.7
З 1 5 км слабый дождь, дымка 10/10 360 м +16.1 +13.9 87 +16 +16 1019.1 996.7
З 1 3 км слабый дождь, дымка 10/10 240 м +15.0 +14.0 94 +14 +14 997.0
З 1 3 км слабый дождь, дымка 10/10 240 м +15.0 +14.4 96 +14 +14 1019.4 997.0
ЮЗ 2 3 км слабый дождь, дымка 10/10 150 м +14.4 +13.9 97 +13 +13 1019.1 996.7
З 2 3 км слабый дождь, дымка 10/10 150 м +14.4 +14.4 100 +13 +13 1018.7 996.4
З 2 3 км слабый дождь, дымка 10/10 150 м +14.4 +14.4 100 +13 +13 1018.3 996.0
СЗ 2 3 км слабый дождь, дымка 10/10 150 м +12.2 +12.2 100 +10 +10 1019.0 996.7
С 3 3 км слабый дождь, дымка 10/10 150 м +11.7 +11.7 100 +8 +8 1019.0 996.7
С 3 8 км дымка 10/10 150 м +11.7 +11.7 100 +8 +8 996.7
С 2 11 км 10/10 150 м +10.6 +10.6 100 +8 +8 1019.3 997.0
С 2 11 км 10/10 150 м +9.4 +8.3 93 +6 +6 1019.7 997.4
С 3
{5}
11 км 10/10 150 м +8.3 +6.7 90 +4 +4 1020.7 998.4
С 3
{4}
11 км 10/10 150 м +7.2 +4.4 82 +3 +3 1020.7 998.4
С 3
{4}
11 км 10/10 150 м +7.2 +4.4 82 +3 +3 1020.8 998.4
С 3 11 км 10/10 150 м +7.2 +4.4 82 +3 +3 999.3
С 2 11 км 10/10 150 м +5.0 +2.2 82 0 0 1022.3 999.7
С 2 11 км 5/2 420 м
[Ci]
+5.0 +2.2 82 0 0 999.7
С 2 11 км 5/2 420 м
[Ci]
+2.8 +1.1 89 -3 -3 1022.3 999.7 +2.8 +10.6
С 1 11 км 8/8 900 м +1.7 0.0 88 -3 -3 1023.8 1001.0
С 2 11 км 5/5 900 м
[Ac]
+2.2 +0.6 89 -3 -3 1024.1 1001.3
С 2 11 км 5/2 900 м
[Ac]
+4.4 +2.2 86 -1 0 1024.0 1001.3
С 1 11 км 2/0 3600 м
[Ac]
+5.0 -0.6 67 +2 +4 1024.4 1001.7
С 1 11 км 2/0 3600 м
[Ac]
+6.7 -0.6 60 +4 +8 1023.7 1001.0
С 2
{4}
11 км 2/0 3600 м
[Ac]
+7.8 -3.9 43 +5 +8 1022.7 1000.0 +1.7 +7.8
С 2 11 км 2/0 3600 м
[Ac]
+8.9 -3.9 40 +6 +9 1022.0 999.3
С 2 11 км 2/0 3600 м
[Ac]
+8.9 -6.1 34 +6 +9 1021.3 998.7
С 2 16 км ясно +8.9 -5.6 35 +7 +10 1021.4 998.7
С 2 16 км ясно +8.3 -5.0 39 +6 +7 1021.4 998.7
СЗ 2 16 км ясно +7.2 -5.6 40 +4 +5 1021.5 998.7
С 1 16 км ясно +5.6 -4.4 49 +4 +4 1021.2 998.4
С 1 16 км ясно +5.0 -3.3 55 +3 +3 1021.2 998.4
Местоположение метеостанции Birmingham International Airport: широта 33.5656 долгота -86.7450 высота над уровнем моря 196 м.
В архиве по умолчанию представлена погода в Бирмингеме за последние 1-2 суток. Обновление информации о фактической погоде в базе происходит ежечасно! Архивные данные за месяц целиком и за предыдущие месяцы Вы можете получить, выбрав интересующий диапазон дат из раскрывающегося списка и нажав кнопку "Ввод!".
Внимание! Архив погоды МЕТАР в базе сайта по станциям, не включенным в климатический монитор, хранится не более 60 дней. Нет смысла пытаться выбрать более раннюю дату.
*Определитесь, кто Вы:
Внимание! Время в таблицах - местное (без учета летнего времени). Для получения всемирного времени необходимо вычесть поправку, которая равна -6 ч.
Смотрите также архив погоды в соседних городах и на ближайших метеорологических станциях:
Партнеры нашего сайта:      
Пояснения к столбцам:
  • Ветер - указаны скорость ветра в м/с - средняя за 10 мин, порывы в срок и между сроками (в фигурных скобках) и направление, откуда дует ветер: С - северный,
  • СВ - северо-восточный, В - восточный, ЮВ - юго-восточный, Ю - южный, ЮЗ - юго-западный, З - западный, СЗ - северо-западный.
  • Видимость - горизонтальная дальность видимости в метрах или километрах. При видимости от 1 до 10 км при отсутствии осадков обычно наблюдается дымка, при ухудшении видимости до 1 км и менее - туман. В сухую погоду видимость может ухудшаться дымом, пылью или мглою.
  • Явления - указаны атмосферные явления, наблюдавшиеся в срок или в последний час перед сроком; фигурными скобками обозначены явления, наблюдавшиеся между сроками (за 1-3 часа до срока); квадратными скобками обозначены град или гололедные отложения с указанием их диаметра в мм.
  • Облачность - указаны через наклонную черту общая и нижняя облачность в баллах и высота нижней границы облаков в метрах; квадратными скобками обозначены формы облаков: Ci - перистые, Cs - перисто-слоистые, Cc - перисто-кучевые, Ac - высококучевые, As - высокослоистые, Sc - слоисто-кучевые, Ns - слоисто-дождевые, Cu - кучевые, Cb - кучево-дождевые. Подробнее классификацию облаков см. в Атласе облаков (PDF).
  • T - Температура воздуха - температура, измеренная на высоте 2 м над землей.
  • Td - Температура точки росы - температура, при понижении до которой содержащийся в воздухе водяной пар достигнет насыщения.
  • f - Относительная влажность воздуха - влажноcть воздуха, измеренная на высоте 2 м над землей.
  • Te - Эффективная температура - температура, которую ощущает одетый по сезону человек в тени. Характеристика душности погоды. При расчете учитывается влияние влажности воздуха и скорости ветра на теплоощущения человека.
  • Tes - Эффективная температура на солнце - температура, которую ощущает человек, с поправкой на солнечный нагрев. Характеристика знойности погоды. Зависит от высоты солнца над горизонтом, облачности и скорости ветра. Ночью, в пасмурную погоду, а также при ветре 12 м/с и более поправка равна нулю.
  • P - Атмосферное давление - приведенное к уровню моря атмосферное давление.
  • Po - Атмосферное давление - измеренное на уровне метеостанции атмосферное давление.
  • Tmin - Минимальная температура - минимум температуры воздуха на высоте 2 м над землей.
  • Tmax - Максимальная температура - максимум температуры воздуха на высоте 2 м над землей.
  • R - Количество осадков - Количество выпавших осадков за период времени, мм. При наведении курсора мыши на число - период времени, за который выпало указанное количество осадков.
  • R24 - Количество осадков - Количество выпавших осадков за 24 часа, мм.
  • S - Снежный покров - Высота снежного покрова, см. При наведении курсора мыши на число - состояние снежного покрова и степень покрытия местности в баллах.